Wednesday, February 21, 2018, 8:12 PM EST
Back to Local

KGTB, Fort Drum / Wheeler-sack U. S. Army Airfield

Location: Fort Drum, NY, United States Lat: 44.05
Local Time: 8:12 PM EST ( 1:12 GMT) Lon: -75.733
Time Zone: US/Eastern Elev: 679 ft

Show me the last for .
Show Decoded

2018-02-21 19:56 METAR KGTB 220056Z AUTO 24006KT 10SM SCT018 OVC030 02/01 A3049 RMK AO2 SLP330
                 T00180006 =
2018-02-21 19:36 METAR KGTB 220036Z AUTO 25005KT 10SM BKN008 OVC017 02/01 A3049 RMK AO2 BKN V OVC
                 SLP330 =
2018-02-21 18:56 METAR KGTB 212356Z AUTO 26005KT 10SM OVC007 02/01 A3048 RMK AO2 SLP326 60000
                 T00240011 10092 20024 52042 =
2018-02-21 18:37 METAR KGTB 212337Z 26005KT 10SM OVC007 02/01 A3047 RMK AO2A SLP322 =
2018-02-21 17:46 METAR KGTB 212246Z COR AUTO 28004KT 10SM SCT008 OVC014 03/01 A3044 RMK AO2 CIG
                 008V014 BKN V SCT CIG 007 RWY03 PRESRR SLP312 COR 2253 =
2018-02-21 16:56 METAR KGTB 212156Z AUTO 24011KT 10SM SCT008 OVC013 03/02 A3038 RMK AO2 CIG
                 008V013 CIG 008 RWY03 SLP291 T00300015 =
2018-02-21 16:37 METAR KGTB 212137Z AUTO 25009KT 10SM BKN008 OVC012 03/02 A3038 RMK AO2 CIG
                 008V010 BKN V OVC CIG 007 RWY03 SLP291 =
2018-02-21 16:36 METAR KGTB 212136Z AUTO 25010KT 10SM OVC010 03/02 A3038 RMK AO2 CIG 008V010 CIG
                 007 RWY03 SLP291 =
2018-02-21 15:56 METAR KGTB 212056Z 25007KT 10SM OVC008 03/02 A3035 RMK AO2A
                 DZE18RAB18E29DZB29E38 CIG 007 RWY03 SLP280 P0000 60000 T00340021 52052 =
2018-02-21 15:38 METAR KGTB 212038Z 25009G19KT 10SM OVC007 04/02 A3034 RMK AO2A
                 DZE18RAB18E29DZB29E38 OVC V BKN CIG 006 RWY03 PRESRR SLP277 =
2018-02-21 15:16 METAR KGTB 212016Z 25011G17KT 10SM -DZ BKN007 OVC011 04/03 A3031 RMK AO2A BKN V
                 OVC SLP267 $ =
2018-02-21 14:56 METAR KGTB 211956Z 25010G20KT 10SM -DZ BKN008 OVC019 05/04 A3030 RMK AO2A
                 DZE34RAB34E48DZB48 CIG 007 RWY03 SLP263 P0000 T00490036 $ =
2018-02-21 14:50 METAR KGTB 211950Z 25015G20KT 10SM -DZ BKN008 OVC019 05/04 A3030 RMK AO2A
                 DZE34RAB34E48DZB48 CIG 007 RWY03 SLP263 $ =
2018-02-21 14:06 METAR KGTB 211906Z 25009G19KT 10SM -DZ BKN005 OVC034 07/06 A3025 RMK AO2A SLP246
                 $ =
2018-02-21 13:56 METAR KGTB 211856Z 25013KT 10SM -DZ SCT005 OVC033 08/07 A3024 RMK AO2A DZB51
                 SLP242 P0000 T00810069 $ =
2018-02-21 13:51 METAR KGTB 211851Z 25010KT 10SM -DZ SCT005 OVC033 08/07 A3023 RMK AO2A DZB51
                 SLP239 $ =
2018-02-21 13:41 METAR KGTB 211841Z 24012G16KT 10SM FEW005 OVC033 09/08 A3022 RMK AO2A SLP235 $ =
2018-02-21 13:16 METAR KGTB 211816Z 26007KT 10SM OVC030 09/08 A3020 RMK AO2A SLP229 $ =
2018-02-21 12:56 METAR KGTB 211756Z 27006KT 5SM FEW002 OVC028 09/08 A3019 RMK AO2A RAE42DZB42E55
                 CIG 010V028 CIG 006 RWY03 SLP225 P0006 60010 T00920080 10198 20091 52046 $ =
2018-02-21 12:55 METAR KGTB 211755Z 27007KT 5SM FEW002 OVC028 09/08 A3019 RMK AO2A RAE42DZB42E55
                 CIG 002V028 CIG 006 RWY03 SLP225 $ =
2018-02-21 12:46 METAR KGTB 211746Z 27008KT 5SM -DZ BKN002 BKN010 OVC026 09/08 A3018 RMK AO2A
                 RAE42DZB42 SLP222 $ =
2018-02-21 12:06 METAR KGTB 211706Z 30007KT 2SM RA BR OVC002 10/09 A3015 RMK AO2A TWR VIS 2 VIS 1
                 3/4 RWY15 SLP212 $ =
2018-02-21 11:56 METAR KGTB 211656Z 29008G18KT 2SM +RA BR OVC002 11/10 A3015 RMK AO2A TWR VIS 2
                 VIS 1 1/2 RWY15 RAB14 SLP212 P0004 T01060098 $ =
2018-02-21 11:49 METAR KGTB 211649Z 28011G16KT 5SM RA BR OVC002 11/10 A3014 RMK AO2A TWR VIS 3200
                 VIS 1 7/8 RWY15 RAB14 CIG 002V004 SLP209 $ =
2018-02-21 11:39 METAR KGTB 211639Z 27008G16KT 2SM RA BR BKN004 OVC008 11/10 A3013 RMK AO2A TWR
                 VIS 3200 VIS 2 RWY15 RAB14 CIG 004V006 CIG 003 RWY03 SLP206 $ =
2018-02-21 11:29 METAR KGTB 211629Z 28011G16KT 2SM -RA BKN006 BKN011 OVC017 12/11 A3012 RMK AO2A
                 TWR VIS 3200 RAB14 CIG 006V017 CIG 004 RWY03 SLP202 $ =
2018-02-21 11:19 METAR KGTB 211619Z AUTO 27007KT 7SM -RA FEW003 BKN012 BKN019 OVC039 13/11 A3011
                 RMK AO2 RAB14 CIG 012V017 SLP198 $ =
2018-02-21 11:14 METAR KGTB 211614Z AUTO 27008KT 10SM -RA SCT013 BKN017 OVC039 14/10 A3010 RMK
                 AO2 RAB14 CIG 017V041 BKN V SCT PRESRR SLP194 $ =
2018-02-21 10:56 METAR KGTB 211556Z 26008KT 10SM BKN041 OVC048 14/10 A3007 RMK AO2A SLP184
                 T01410101 $ =
2018-02-21 10:01 METAR KGTB 211501Z 32015G25KT 10SM BKN050 OVC100 16/10 A3006 RMK PK WND
                 23029/1430 SLPNO ALSTG ESTMD RVRNO VISNO RWY03 $ =
2018-02-21 08:56 METAR KGTB 211356Z 21014G20KT 10SM FEW030 SCT080 BKN150 18/11 A3002 RMK AO2A
                 SLP166 T01820110 RVRNO TSNO VISNO RWY03 CHINO RWY03 $ =
2018-02-21 07:56 METAR KGTB 211256Z AUTO 15009KT 10SM FEW060 12/09 A3004 RMK AO2 SLP175 T01230093
                 RVRNO TSNO VISNO RWY03 CHINO RWY03 $ =
2018-02-21 06:56 METAR KGTB 211156Z AUTO 22006KT 10SM FEW046 16/10 A3004 RMK AO2 SLP174 70032
                 T01640103 10184 20164 53003 TSNO $ =
2018-02-21 05:56 METAR KGTB 211056Z AUTO 22010KT 10SM CLR 17/11 A3003 RMK AO2 SLP169 T01740105
                 TSNO $ =
2018-02-21 04:56 METAR KGTB 210956Z AUTO 22012G19KT 10SM CLR 18/11 A3003 RMK AO2 PK WND
                 23028/0858 SLP169 T01820108 TSNO $ =
2018-02-21 03:56 METAR KGTB 210856Z AUTO 21014G27KT 10SM CLR 18/11 A3003 RMK AO2 PK WND 20027/20
                 SLP170 T01800108 58006 TSNO $ =
2018-02-21 02:56 METAR KGTB 210756Z AUTO 20016G29KT 10SM CLR 18/11 A3004 RMK AO2 PK WND 22029/04
                 SLP174 T01780111 TSNO $ =
2018-02-21 01:56 METAR KGTB 210656Z AUTO 21015KT 10SM FEW080 FEW190 17/11 A3005 RMK AO2 PK WND
                 20027/0559 SLP176 T01730113 TSNO $ =
2018-02-21 00:56 METAR KGTB 210556Z AUTO 20019KT 10SM BKN070 BKN095 17/11 A3005 RMK AO2 PK WND
                 20029/54 SLP176 60001 T01660113 10167 20111 57018 TSNO $ =
2018-02-20 23:56 METAR KGTB 210456Z 14013KT 10SM SCT065 12/10 A3006 RMK AO2A SLP182 T01200101
                 401480044 TSNO $ =
2018-02-20 22:56 METAR KGTB 210356Z 14010KT 10SM SCT060 BKN070 BKN085 11/10 A3008 RMK AO2A SLP189
                 T01130100 TSNO $ =
2018-02-20 21:56 METAR KGTB 210256Z 15010KT 10SM BKN050 12/10 A3010 RMK AO2A SLP195 60001
                 T01150104 50004 TSNO $ =
2018-02-20 20:56 METAR KGTB 210156Z 17008KT 10SM BKN043 OVC060 13/11 A3011 RMK AO2A RAB09E17
                 SLP198 P0001 T01280112 TSNO $ =
2018-02-20 20:17 METAR KGTB 210117Z 15008KT 10SM BKN034 OVC048 11/11 A3010 RMK AO2A RAB09E17
                 SLP196 TSNO $ =
2018-02-20 20:14 METAR KGTB 210114Z 15009KT 10SM -RA OVC033 11/11 A3010 RMK AO2A RAB09 SLP196
                 TSNO $ =

Support USWX by starting your Amazon purchase here.